Weather in Priozerny

Russia / Yamalo-Nenets Autonomous Okrug     64°16′13″N   71°05′45″E
temp.,
°C
wind,
m/s
gust,
m/s
humid.,
%
clouds,
%
prec.,
mm/h
press.,
hPa
HPBL,
m
27 february, sat
sat2723:00−22w3498100 0.2 102470
02:00−24w449795 0.0 102351
05:00−24w349798 0.1 102466
08:00−25w339797 0.0 102426
11:00−23wsw349693 0.0 1024141
14:00−21wsw349576 0.0 1024178
17:00−24sw339654 0.0 102420
20:00−25sw339535 0.0 102420
28 february, sun
sun2823:00−25ssw3410035 0.0 102521
02:00−27sw34970 0.0 102422
05:00−28ssw34980 0.0 102521
08:00−28ssw44970 0.0 102527
11:00−24ssw46940 0.0 1024184
14:00−22s46930 0.0 1024229
17:00−24s45950 0.0 102448
20:00−27s45950 0.0 102348
1 march, mon
mon123:00−27s45940 0.0 102450
02:00−28s45950 0.0 102345
05:00−28s45960 0.0 102341
08:00−28s45980 0.0 102256
11:00−24s58930 0.0 1021224
14:00−22s699220 0.0 1020259
17:00−23s589227 0.0 1019128
20:00−25s69890 0.0 1018134
2 march, tue
tue223:00−26s612890 0.0 1017159
02:00−26s712890 0.0 1015165
05:00−27s712880 0.0 1014156
08:00−26s7149245 0.0 1013203
11:00−23s9149137 0.0 1013296
14:00−20s9158646 0.0 1012340
17:00−21s8148749 0.0 1012257
20:00−23s8149185 0.0 1011246
3 march, wed
wed323:00−22s8149490 0.0 1011260
02:00−22s8149698 0.0 1010251
05:00−21s8149699 0.0 1010256
08:00−21s91696100 0.0 1010264
11:00−19s101695100 0.0 1010354
14:00−17s91493100 0.0 1009411
17:00−18sse91594100 0.0 1008381
20:00−18s91694100 0.0 1007399